Time,TemperatureF,DewpointF,PressureIn,WindDirection,WindDirectionDegrees,WindSpeedMPH,WindSpeedGustMPH,Humidity,HourlyPrecipIn,Conditions,Clouds,dailyrainin,SolarRadiationWatts/m^2,SoftwareType,DateUTC
2013-07-10 00:00:00,74.5,70.4,29.77,WNW,289,0.0,4.0,87,0.00,,---,0.28,0.00,VWS V14.01,2013-07-10 05:00:00,
2013-07-10 00:01:00,74.5,70.4,29.78,WNW,289,0.0,0.0,87,0.00,,---,0.00,0.00,VWS V14.01,2013-07-10 05:01:00,
2013-07-10 00:06:00,74.4,70.3,29.78,WNW,289,2.0,2.0,87,0.00,,---,0.00,0.00,VWS V14.01,2013-07-10 05:06:00,
2013-07-10 00:11:00,74.3,70.2,29.77,WNW,289,0.0,2.0,87,0.00,,---,0.00,0.00,VWS V14.01,2013-07-10 05:11:00,
2013-07-10 00:16:00,74.3,70.2,29.77,WNW,289,0.0,2.0,87,0.00,,---,0.00,0.00,VWS V14.01,2013-07-10 05:16:00,
2013-07-10 00:21:00,74.2,70.1,29.77,WNW,289,0.0,2.0,87,0.00,,---,0.00,0.00,VWS V14.01,2013-07-10 05:21:00,
2013-07-10 00:26:00,74.0,69.6,29.77,SW,221,0.0,2.0,86,0.00,,---,0.00,0.00,VWS V14.01,2013-07-10 05:26:00,
2013-07-10 00:31:00,74.0,69.6,29.77,SW,221,0.0,2.0,86,0.00,,---,0.00,0.00,VWS V14.01,2013-07-10 05:31:00,
2013-07-10 00:36:00,74.0,69.6,29.77,SW,221,0.0,2.0,86,0.00,,---,0.00,0.00,VWS V14.01,2013-07-10 05:36:00,
2013-07-10 00:41:00,73.9,69.4,29.77,SW,221,0.0,2.0,86,0.00,,---,0.00,0.00,VWS V14.01,2013-07-10 05:41:00,
2013-07-10 00:46:00,73.9,69.4,29.77,SW,221,0.0,2.0,86,0.00,,---,0.00,0.00,VWS V14.01,2013-07-10 05:46:00,
2013-07-10 00:51:00,73.9,69.4,29.77,SW,221,0.0,2.0,86,0.00,,---,0.00,0.00,VWS V14.01,2013-07-10 05:51:00,
2013-07-10 00:56:00,73.8,69.7,29.77,SW,221,0.0,2.0,87,0.00,,---,0.00,0.00,VWS V14.01,2013-07-10 05:56:00,
2013-07-10 01:00:00,73.7,69.3,29.77,SW,221,0.0,2.0,86,0.00,,---,0.00,0.00,VWS V14.01,2013-07-10 06:00:00,
2013-07-10 01:01:00,73.7,69.3,29.77,SW,221,0.0,0.0,86,0.00,,---,0.00,0.00,VWS V14.01,2013-07-10 06:01:00,
2013-07-10 01:06:00,73.5,69.1,29.77,SW,221,0.0,1.0,86,0.00,,---,0.00,0.00,VWS V14.01,2013-07-10 06:06:00,
2013-07-10 01:11:00,73.4,69.0,29.77,SW,221,0.0,1.0,86,0.00,,---,0.00,0.00,VWS V14.01,2013-07-10 06:11:00,
2013-07-10 01:16:00,73.4,69.3,29.77,SW,221,0.0,1.0,87,0.00,,---,0.00,0.00,VWS V14.01,2013-07-10 06:16:00,
2013-07-10 01:21:00,73.3,69.2,29.77,SW,221,0.0,1.0,87,0.00,,---,0.00,0.00,VWS V14.01,2013-07-10 06:21:00,
2013-07-10 01:26:00,73.2,69.1,29.77,SW,221,0.0,1.0,87,0.00,,---,0.00,0.00,VWS V14.01,2013-07-10 06:26:00,
2013-07-10 01:31:00,73.1,69.0,29.77,SW,221,0.0,1.0,87,0.00,,---,0.00,0.00,VWS V14.01,2013-07-10 06:31:00,
2013-07-10 01:36:00,73.0,68.9,29.77,SW,221,0.0,1.0,87,0.00,,---,0.00,0.00,VWS V14.01,2013-07-10 06:36:00,
2013-07-10 01:41:00,72.9,68.8,29.77,SW,221,0.0,1.0,87,0.00,,---,0.00,0.00,VWS V14.01,2013-07-10 06:41:00,
2013-07-10 01:46:00,72.8,69.0,29.77,SW,221,0.0,1.0,88,0.00,,---,0.00,0.00,VWS V14.01,2013-07-10 06:46:00,
2013-07-10 01:51:00,72.6,68.8,29.77,SW,221,0.0,1.0,88,0.00,,---,0.00,0.00,VWS V14.01,2013-07-10 06:51:00,
2013-07-10 01:56:00,72.5,68.8,29.77,SW,221,0.0,1.0,88,0.00,,---,0.00,0.00,VWS V14.01,2013-07-10 06:56:00,
2013-07-10 02:00:00,72.4,68.7,29.77,SW,221,0.0,1.0,88,0.00,,---,0.00,0.00,VWS V14.01,2013-07-10 07:00:00,
2013-07-10 02:01:00,72.4,68.7,29.77,SW,221,0.0,0.0,88,0.00,,---,0.00,0.00,VWS V14.01,2013-07-10 07:01:00,
2013-07-10 02:06:00,72.3,68.6,29.77,SW,221,0.0,0.0,88,0.00,,---,0.00,0.00,VWS V14.01,2013-07-10 07:06:00,
2013-07-10 02:11:00,72.1,68.3,29.77,SW,221,0.0,0.0,88,0.00,,---,0.00,0.00,VWS V14.01,2013-07-10 07:11:00,
2013-07-10 02:16:00,72.0,68.6,29.77,SW,221,0.0,0.0,89,0.00,,---,0.00,0.00,VWS V14.01,2013-07-10 07:16:00,
2013-07-10 02:21:00,71.9,68.5,29.77,SW,221,0.0,0.0,89,0.00,,---,0.00,0.00,VWS V14.01,2013-07-10 07:21:00,
2013-07-10 02:26:00,71.7,68.3,29.77,SW,221,0.0,0.0,89,0.00,,---,0.00,0.00,VWS V14.01,2013-07-10 07:26:00,
2013-07-10 02:31:00,71.7,68.3,29.77,SW,221,0.0,0.0,89,0.00,,---,0.00,0.00,VWS V14.01,2013-07-10 07:31:00,
2013-07-10 02:36:00,71.5,68.4,29.77,SW,221,0.0,1.0,90,0.00,,---,0.00,0.00,VWS V14.01,2013-07-10 07:36:00,
2013-07-10 02:41:00,71.4,68.3,29.77,WSW,240,0.0,2.0,90,0.00,,---,0.00,0.00,VWS V14.01,2013-07-10 07:41:00,
2013-07-10 02:46:00,71.3,68.2,29.77,NW,321,0.0,2.0,90,0.00,,---,0.00,0.00,VWS V14.01,2013-07-10 07:46:00,
2013-07-10 02:51:00,71.2,68.1,29.77,NNW,343,0.0,2.0,90,0.00,,---,0.00,0.00,VWS V14.01,2013-07-10 07:51:00,
2013-07-10 02:56:00,71.2,68.1,29.77,NNW,343,0.0,2.0,90,0.00,,---,0.00,0.00,VWS V14.01,2013-07-10 07:56:00,
2013-07-10 03:00:00,71.2,68.1,29.77,NNW,343,0.0,2.0,90,0.00,,---,0.00,0.00,VWS V14.01,2013-07-10 08:00:00,
2013-07-10 03:01:00,71.2,68.1,29.77,NNW,343,0.0,0.0,90,0.00,,---,0.00,0.00,VWS V14.01,2013-07-10 08:01:00,
2013-07-10 03:06:00,71.2,68.4,29.77,NNW,343,0.0,1.0,91,0.00,,---,0.00,0.00,VWS V14.01,2013-07-10 08:06:00,
2013-07-10 03:12:00,71.1,68.0,29.77,NNW,343,1.0,1.0,90,0.00,,---,0.00,0.00,VWS V14.01,2013-07-10 08:12:00,
2013-07-10 03:17:00,71.1,68.0,29.77,NNW,343,0.0,1.0,90,0.00,,---,0.00,0.00,VWS V14.01,2013-07-10 08:17:00,
2013-07-10 03:22:00,71.1,68.0,29.77,NW,317,0.0,2.0,90,0.00,,---,0.00,0.00,VWS V14.01,2013-07-10 08:22:00,
2013-07-10 03:27:00,71.0,67.9,29.77,NW,317,0.0,2.0,90,0.00,,---,0.00,0.00,VWS V14.01,2013-07-10 08:27:00,
2013-07-10 03:32:00,71.0,67.9,29.77,NW,317,0.0,2.0,90,0.00,,---,0.00,0.00,VWS V14.01,2013-07-10 08:32:00,
2013-07-10 03:37:00,70.9,67.8,29.77,NW,317,0.0,2.0,90,0.00,,---,0.00,0.00,VWS V14.01,2013-07-10 08:37:00,
2013-07-10 03:42:00,70.8,67.7,29.78,WSW,257,0.0,2.0,90,0.00,,---,0.00,0.00,VWS V14.01,2013-07-10 08:42:00,
2013-07-10 03:47:00,70.7,67.6,29.78,WSW,257,0.0,2.0,90,0.00,,---,0.00,0.00,VWS V14.01,2013-07-10 08:47:00,
2013-07-10 03:52:00,70.6,67.5,29.79,WSW,257,0.0,2.0,90,0.00,,---,0.00,0.00,VWS V14.01,2013-07-10 08:52:00,
2013-07-10 03:57:00,70.5,67.4,29.79,WSW,257,0.0,2.0,90,0.00,,---,0.00,0.00,VWS V14.01,2013-07-10 08:57:00,
2013-07-10 04:00:00,70.4,67.3,29.78,WSW,257,0.0,2.0,90,0.00,,---,0.00,0.00,VWS V14.01,2013-07-10 09:00:00,
2013-07-10 04:02:00,70.4,67.3,29.78,WSW,257,0.0,0.0,90,0.00,,---,0.00,0.00,VWS V14.01,2013-07-10 09:02:00,
2013-07-10 04:07:00,70.2,67.1,29.79,West,277,0.0,2.0,90,0.00,,---,0.00,0.00,VWS V14.01,2013-07-10 09:07:00,
2013-07-10 04:12:00,70.0,66.9,29.79,West,277,0.0,2.0,90,0.00,,---,0.00,0.00,VWS V14.01,2013-07-10 09:12:00,
2013-07-10 04:17:00,69.9,66.8,29.79,West,277,0.0,2.0,90,0.00,,---,0.00,0.00,VWS V14.01,2013-07-10 09:17:00,
2013-07-10 04:22:00,69.8,66.7,29.79,West,277,0.0,2.0,90,0.00,,---,0.00,0.00,VWS V14.01,2013-07-10 09:22:00,
2013-07-10 04:27:00,69.8,67.1,29.80,West,269,1.0,2.0,91,0.00,,---,0.00,0.00,VWS V14.01,2013-07-10 09:27:00,
2013-07-10 04:32:00,69.7,67.0,29.80,West,269,0.0,2.0,91,0.00,,---,0.00,0.00,VWS V14.01,2013-07-10 09:32:00,
2013-07-10 04:37:00,69.6,66.5,29.80,West,269,0.0,2.0,90,0.00,,---,0.00,0.00,VWS V14.01,2013-07-10 09:37:00,
2013-07-10 04:42:00,69.6,66.5,29.80,West,269,0.0,2.0,90,0.00,,---,0.00,0.00,VWS V14.01,2013-07-10 09:42:00,
2013-07-10 04:47:00,69.5,66.4,29.81,West,269,0.0,2.0,90,0.00,,---,0.00,0.00,VWS V14.01,2013-07-10 09:47:00,
2013-07-10 04:52:00,69.5,66.4,29.81,NW,319,0.0,3.0,90,0.00,,---,0.00,0.00,VWS V14.01,2013-07-10 09:52:00,
2013-07-10 04:57:00,69.4,66.3,29.81,NW,319,0.0,3.0,90,0.00,,---,0.00,0.00,VWS V14.01,2013-07-10 09:57:00,
2013-07-10 05:00:00,69.4,66.3,29.81,NW,319,0.0,3.0,90,0.00,,---,0.00,0.00,VWS V14.01,2013-07-10 10:00:00,
2013-07-10 05:02:00,69.4,66.3,29.81,NW,319,0.0,0.0,90,0.00,,---,0.00,0.00,VWS V14.01,2013-07-10 10:02:00,
2013-07-10 05:07:00,69.3,66.2,29.81,NW,319,0.0,1.0,90,0.00,,---,0.00,0.00,VWS V14.01,2013-07-10 10:07:00,
2013-07-10 05:12:00,69.2,66.2,29.81,NW,319,0.0,1.0,90,0.00,,---,0.00,0.00,VWS V14.01,2013-07-10 10:12:00,
2013-07-10 05:17:00,69.2,66.2,29.81,NW,309,0.0,3.0,90,0.00,,---,0.00,0.00,VWS V14.01,2013-07-10 10:17:00,
2013-07-10 05:22:00,69.0,65.9,29.82,NW,309,2.0,3.0,90,0.00,,---,0.00,0.00,VWS V14.01,2013-07-10 10:22:00,
2013-07-10 05:27:00,69.0,65.9,29.82,NW,309,0.0,3.0,90,0.00,,---,0.00,0.00,VWS V14.01,2013-07-10 10:27:00,
2013-07-10 05:32:00,68.9,65.8,29.82,WNW,284,0.0,3.0,90,0.00,,---,0.00,0.00,VWS V14.01,2013-07-10 10:32:00,
2013-07-10 05:37:00,68.8,66.1,29.82,WNW,284,0.0,3.0,91,0.00,,---,0.00,5.00,VWS V14.01,2013-07-10 10:37:00,
2013-07-10 05:42:00,68.8,66.1,29.82,WNW,284,1.0,3.0,91,0.00,,---,0.00,7.00,VWS V14.01,2013-07-10 10:42:00,
2013-07-10 05:47:00,68.7,66.0,29.82,West,277,0.0,3.0,91,0.00,,---,0.00,9.00,VWS V14.01,2013-07-10 10:47:00,
2013-07-10 05:52:00,68.7,66.0,29.83,West,277,0.0,3.0,91,0.00,,---,0.00,18.00,VWS V14.01,2013-07-10 10:52:00,
2013-07-10 05:57:00,68.6,65.9,29.83,West,277,0.0,3.0,91,0.00,,---,0.00,14.00,VWS V14.01,2013-07-10 10:57:00,
2013-07-10 06:00:00,68.6,65.9,29.83,West,277,0.0,3.0,91,0.00,,---,0.00,12.00,VWS V14.01,2013-07-10 11:00:00,
2013-07-10 06:02:00,68.6,65.9,29.83,West,275,1.0,3.0,91,0.00,,---,0.00,14.00,VWS V14.01,2013-07-10 11:02:00,
2013-07-10 06:07:00,68.6,65.9,29.83,West,272,0.0,3.0,91,0.00,,---,0.00,16.00,VWS V14.01,2013-07-10 11:07:00,
2013-07-10 06:12:00,68.6,65.9,29.83,SW,232,0.0,3.0,91,0.00,,---,0.00,21.00,VWS V14.01,2013-07-10 11:12:00,
2013-07-10 06:17:00,68.6,65.9,29.83,WSW,253,2.0,3.0,91,0.00,,---,0.00,25.00,VWS V14.01,2013-07-10 11:17:00,
2013-07-10 06:22:00,68.6,65.9,29.83,WNW,298,0.0,3.0,91,0.00,,---,0.00,33.00,VWS V14.01,2013-07-10 11:22:00,
2013-07-10 06:28:00,68.8,66.1,29.83,NW,317,2.0,3.0,91,0.00,,---,0.00,30.00,VWS V14.01,2013-07-10 11:28:00,
2013-07-10 06:33:00,68.8,66.1,29.83,West,273,0.0,3.0,91,0.00,,---,0.00,28.00,VWS V14.01,2013-07-10 11:33:00,
2013-07-10 06:38:00,69.0,66.3,29.83,NW,304,0.0,3.0,91,0.00,,---,0.00,39.00,VWS V14.01,2013-07-10 11:38:00,
2013-07-10 06:43:00,69.1,66.4,29.84,NW,304,0.0,3.0,91,0.00,,---,0.00,47.00,VWS V14.01,2013-07-10 11:43:00,
2013-07-10 06:48:00,69.3,66.9,29.84,NW,304,1.0,3.0,92,0.00,,---,0.00,98.00,VWS V14.01,2013-07-10 11:48:00,
2013-07-10 06:53:00,69.6,66.9,29.84,NNW,343,0.0,3.0,91,0.00,,---,0.00,123.00,VWS V14.01,2013-07-10 11:53:00,
2013-07-10 06:58:00,70.0,66.9,29.83,North,349,5.0,8.0,90,0.00,,---,0.00,190.00,VWS V14.01,2013-07-10 11:58:00,
2013-07-10 07:00:00,70.1,66.7,29.83,NNW,344,6.0,8.0,89,0.00,,---,0.00,199.00,VWS V14.01,2013-07-10 12:00:00,
2013-07-10 07:03:00,70.3,66.6,29.84,West,277,6.0,8.0,88,0.00,,---,0.00,209.00,VWS V14.01,2013-07-10 12:03:00,
2013-07-10 07:08:00,70.7,66.3,29.84,North,360,1.0,8.0,86,0.00,,---,0.00,288.00,VWS V14.01,2013-07-10 12:08:00,
2013-07-10 07:13:00,71.1,66.0,29.84,North,355,1.0,8.0,84,0.00,,---,0.00,230.00,VWS V14.01,2013-07-10 12:13:00,
2013-07-10 07:18:00,71.2,65.8,29.84,NNE,28,3.0,8.0,83,0.00,,---,0.00,271.00,VWS V14.01,2013-07-10 12:18:00,
2013-07-10 07:23:00,71.5,66.4,29.84,NNE,18,2.0,8.0,84,0.00,,---,0.00,288.00,VWS V14.01,2013-07-10 12:23:00,
2013-07-10 07:28:00,71.7,66.3,29.84,NNE,32,4.0,8.0,83,0.00,,---,0.00,369.00,VWS V14.01,2013-07-10 12:28:00,
2013-07-10 07:33:00,71.9,66.1,29.84,NNE,19,4.0,8.0,82,0.00,,---,0.00,316.00,VWS V14.01,2013-07-10 12:33:00,
2013-07-10 07:38:00,71.9,66.1,29.84,NNE,13,6.0,8.0,82,0.00,,---,0.00,322.00,VWS V14.01,2013-07-10 12:38:00,
2013-07-10 07:43:00,71.9,65.4,29.84,NNE,32,2.0,11.0,80,0.00,,---,0.00,362.00,VWS V14.01,2013-07-10 12:43:00,
2013-07-10 07:48:00,71.9,65.4,29.84,North,5,2.0,11.0,80,0.00,,---,0.00,390.00,VWS V14.01,2013-07-10 12:48:00,
2013-07-10 07:53:00,71.9,65.0,29.84,NNW,345,2.0,11.0,79,0.00,,---,0.00,42.00,VWS V14.01,2013-07-10 12:53:00,
2013-07-10 07:58:00,71.5,63.9,29.84,NNE,14,1.0,11.0,77,0.00,,---,0.00,46.00,VWS V14.01,2013-07-10 12:58:00,
2013-07-10 08:00:00,71.4,63.8,29.84,North,360,4.0,11.0,77,0.00,,---,0.00,46.00,VWS V14.01,2013-07-10 13:00:00,
2013-07-10 08:03:00,71.0,63.1,29.84,NNW,338,3.0,10.0,76,0.00,,---,0.00,373.00,VWS V14.01,2013-07-10 13:03:00,
2013-07-10 08:08:00,70.9,63.3,29.85,NW,324,6.0,10.0,77,0.00,,---,0.00,383.00,VWS V14.01,2013-07-10 13:08:00,
2013-07-10 08:13:00,71.0,63.1,29.85,NNW,331,5.0,10.0,76,0.00,,---,0.00,408.00,VWS V14.01,2013-07-10 13:13:00,
2013-07-10 08:18:00,71.3,63.0,29.85,NNW,346,3.0,10.0,75,0.00,,---,0.00,434.00,VWS V14.01,2013-07-10 13:18:00,
2013-07-10 08:23:00,71.6,62.9,29.85,WNW,284,4.0,10.0,74,0.00,,---,0.00,439.00,VWS V14.01,2013-07-10 13:23:00,
2013-07-10 08:28:00,71.8,62.3,29.85,North,355,3.0,10.0,72,0.00,,---,0.00,462.00,VWS V14.01,2013-07-10 13:28:00,
2013-07-10 08:33:00,71.7,60.6,29.86,NE,55,5.0,14.0,68,0.00,,---,0.00,457.00,VWS V14.01,2013-07-10 13:33:00,
2013-07-10 08:38:00,71.5,60.4,29.86,NE,40,3.0,14.0,68,0.00,,---,0.00,490.00,VWS V14.01,2013-07-10 13:38:00,
2013-07-10 08:43:00,71.4,60.7,29.86,WNW,295,5.0,14.0,69,0.00,,---,0.00,76.00,VWS V14.01,2013-07-10 13:43:00,
2013-07-10 08:48:00,71.0,60.3,29.86,NNW,340,3.0,14.0,69,0.00,,---,0.00,508.00,VWS V14.01,2013-07-10 13:48:00,
2013-07-10 08:53:00,71.0,59.9,29.87,NNE,22,6.0,16.0,68,0.00,,---,0.00,519.00,VWS V14.01,2013-07-10 13:53:00,
2013-07-10 08:58:00,71.1,60.0,29.87,NNE,19,3.0,16.0,68,0.00,,---,0.00,527.00,VWS V14.01,2013-07-10 13:58:00,
2013-07-10 09:00:00,71.2,60.1,29.87,North,360,4.0,16.0,68,0.00,,---,0.00,534.00,VWS V14.01,2013-07-10 14:00:00,
2013-07-10 09:03:00,71.2,59.7,29.87,North,355,4.0,8.0,67,0.00,,---,0.00,515.00,VWS V14.01,2013-07-10 14:03:00,
2013-07-10 09:08:00,71.5,60.4,29.87,NNW,343,3.0,8.0,68,0.00,,---,0.00,566.00,VWS V14.01,2013-07-10 14:08:00,
2013-07-10 09:13:00,72.3,60.3,29.88,North,5,2.0,8.0,66,0.00,,---,0.00,527.00,VWS V14.01,2013-07-10 14:13:00,
2013-07-10 09:18:00,71.7,60.2,29.88,West,274,1.0,8.0,67,0.00,,---,0.00,603.00,VWS V14.01,2013-07-10 14:18:00,
2013-07-10 09:23:00,71.5,59.6,29.88,NW,316,6.0,9.0,66,0.00,,---,0.00,679.00,VWS V14.01,2013-07-10 14:23:00,
2013-07-10 09:28:00,72.0,60.5,29.88,North,5,6.0,9.0,67,0.00,,---,0.00,631.00,VWS V14.01,2013-07-10 14:28:00,
2013-07-10 09:33:00,71.9,59.9,29.88,North,5,3.0,12.0,66,0.00,,---,0.00,631.00,VWS V14.01,2013-07-10 14:33:00,
2013-07-10 09:38:00,71.1,60.0,29.88,North,5,7.0,12.0,68,0.00,,---,0.00,253.00,VWS V14.01,2013-07-10 14:38:00,
2013-07-10 09:43:00,71.1,60.4,29.88,NNW,339,3.0,12.0,69,0.00,,---,0.00,178.00,VWS V14.01,2013-07-10 14:43:00,
2013-07-10 09:48:00,70.5,59.4,29.88,NNW,338,8.0,12.0,68,0.00,,---,0.00,397.00,VWS V14.01,2013-07-10 14:48:00,
2013-07-10 09:53:00,71.2,60.5,29.88,North,5,7.0,12.0,69,0.00,,---,0.00,744.00,VWS V14.01,2013-07-10 14:53:00,
2013-07-10 09:58:00,71.8,60.3,29.89,WNW,299,7.0,12.0,67,0.00,,---,0.00,213.00,VWS V14.01,2013-07-10 14:58:00,
2013-07-10 10:00:00,71.8,60.3,29.89,NNE,19,4.0,12.0,67,0.00,,---,0.00,213.00,VWS V14.01,2013-07-10 15:00:00,
2013-07-10 10:03:00,71.6,59.7,29.88,NNW,336,4.0,6.0,66,0.00,,---,0.00,264.00,VWS V14.01,2013-07-10 15:03:00,
2013-07-10 10:08:00,71.3,60.2,29.88,NNE,25,3.0,7.0,68,0.00,,---,0.00,165.00,VWS V14.01,2013-07-10 15:08:00,
2013-07-10 10:13:00,71.6,60.5,29.88,NE,53,2.0,9.0,68,0.00,,---,0.00,765.00,VWS V14.01,2013-07-10 15:13:00,
2013-07-10 10:18:00,72.9,60.9,29.89,WNW,300,4.0,9.0,66,0.00,,---,0.00,803.00,VWS V14.01,2013-07-10 15:18:00,
2013-07-10 10:23:00,74.0,61.5,29.89,North,5,4.0,9.0,65,0.00,,---,0.00,872.00,VWS V14.01,2013-07-10 15:23:00,
2013-07-10 10:28:00,74.8,61.4,29.89,North,355,1.0,9.0,63,0.00,,---,0.00,958.00,VWS V14.01,2013-07-10 15:28:00,
2013-07-10 10:33:00,74.5,61.5,29.89,West,275,2.0,9.0,64,0.00,,---,0.00,248.00,VWS V14.01,2013-07-10 15:33:00,
2013-07-10 10:38:00,73.3,60.4,29.89,NW,323,3.0,9.0,64,0.00,,---,0.00,246.00,VWS V14.01,2013-07-10 15:38:00,
2013-07-10 10:43:00,72.9,60.5,29.89,NW,321,1.0,9.0,65,0.00,,---,0.00,207.00,VWS V14.01,2013-07-10 15:43:00,
2013-07-10 10:48:00,73.1,59.8,29.89,NNW,329,3.0,9.0,63,0.00,,---,0.00,974.00,VWS V14.01,2013-07-10 15:48:00,
2013-07-10 10:53:00,74.2,61.2,29.89,ESE,119,0.0,9.0,64,0.00,,---,0.00,972.00,VWS V14.01,2013-07-10 15:53:00,
2013-07-10 10:58:00,75.8,61.4,29.89,NNW,333,5.0,9.0,61,0.00,,---,0.00,1000.00,VWS V14.01,2013-07-10 15:58:00,
2013-07-10 11:00:00,75.7,61.3,29.89,SW,223,3.0,9.0,61,0.00,,---,0.00,1000.00,VWS V14.01,2013-07-10 16:00:00,
2013-07-10 11:03:00,74.7,60.4,29.89,NNE,13,4.0,5.0,61,0.00,,---,0.00,260.00,VWS V14.01,2013-07-10 16:03:00,
2013-07-10 11:08:00,73.5,60.2,29.89,WNW,292,3.0,8.0,63,0.00,,---,0.00,172.00,VWS V14.01,2013-07-10 16:08:00,
2013-07-10 11:13:00,73.3,60.0,29.89,NNE,30,4.0,9.0,63,0.00,,---,0.00,868.00,VWS V14.01,2013-07-10 16:13:00,
2013-07-10 11:18:00,74.7,60.8,29.89,NNW,339,6.0,9.0,62,0.00,,---,0.00,940.00,VWS V14.01,2013-07-10 16:18:00,
2013-07-10 11:23:00,73.7,59.0,29.89,North,355,4.0,10.0,60,0.00,,---,0.00,469.00,VWS V14.01,2013-07-10 16:23:00,
2013-07-10 11:28:00,75.2,60.8,29.89,NE,51,2.0,10.0,61,0.00,,---,0.00,940.00,VWS V14.01,2013-07-10 16:28:00,
2013-07-10 11:33:00,74.5,58.3,29.89,NNW,331,9.0,10.0,57,0.00,,---,0.00,904.00,VWS V14.01,2013-07-10 16:33:00,
2013-07-10 11:38:00,74.4,58.7,29.89,NE,49,4.0,10.0,58,0.00,,---,0.00,905.00,VWS V14.01,2013-07-10 16:38:00,
2013-07-10 11:43:00,75.9,57.6,29.89,West,280,9.0,10.0,53,0.00,,---,0.00,905.00,VWS V14.01,2013-07-10 16:43:00,
2013-07-10 11:48:00,74.8,57.1,29.89,NNW,344,3.0,13.0,54,0.00,,---,0.00,900.00,VWS V14.01,2013-07-10 16:48:00,
2013-07-10 11:53:00,76.1,58.3,29.89,NW,311,6.0,13.0,54,0.00,,---,0.00,911.00,VWS V14.01,2013-07-10 16:53:00,
2013-07-10 11:58:00,75.7,57.4,29.89,West,277,2.0,13.0,53,0.00,,---,0.00,918.00,VWS V14.01,2013-07-10 16:58:00,
2013-07-10 12:00:00,75.7,57.4,29.89,NE,39,1.0,13.0,53,0.00,,---,0.00,918.00,VWS V14.01,2013-07-10 17:00:00,
2013-07-10 12:03:00,75.9,56.5,29.89,NE,46,3.0,15.0,51,0.00,,---,0.00,921.00,VWS V14.01,2013-07-10 17:03:00,
2013-07-10 12:08:00,75.8,58.0,29.89,ENE,64,1.0,15.0,54,0.00,,---,0.00,921.00,VWS V14.01,2013-07-10 17:08:00,
2013-07-10 12:13:00,75.8,57.5,29.89,WSW,248,2.0,15.0,53,0.00,,---,0.00,933.00,VWS V14.01,2013-07-10 17:13:00,
2013-07-10 12:18:00,76.3,57.9,29.89,North,350,5.0,15.0,53,0.00,,---,0.00,939.00,VWS V14.01,2013-07-10 17:18:00,
2013-07-10 12:23:00,76.0,56.6,29.90,NW,314,4.0,15.0,51,0.00,,---,0.00,942.00,VWS V14.01,2013-07-10 17:23:00,
2013-07-10 12:28:00,76.0,58.2,29.90,West,265,3.0,15.0,54,0.00,,---,0.00,947.00,VWS V14.01,2013-07-10 17:28:00,
2013-07-10 12:33:00,76.2,58.9,29.90,NW,318,4.0,15.0,55,0.00,,---,0.00,953.00,VWS V14.01,2013-07-10 17:33:00,
2013-07-10 12:38:00,77.7,58.7,29.90,West,261,4.0,15.0,52,0.00,,---,0.00,213.00,VWS V14.01,2013-07-10 17:38:00,
2013-07-10 12:43:00,77.6,60.2,29.91,NE,40,2.0,15.0,55,0.00,,---,0.00,1021.00,VWS V14.01,2013-07-10 17:43:00,
2013-07-10 12:48:00,77.8,57.7,29.91,WSW,252,3.0,15.0,50,0.00,,---,0.00,970.00,VWS V14.01,2013-07-10 17:48:00,
2013-07-10 12:53:00,77.7,59.2,29.91,NW,305,4.0,15.0,53,0.00,,---,0.00,954.00,VWS V14.01,2013-07-10 17:53:00,
2013-07-10 12:58:00,76.9,58.0,29.91,NNE,15,2.0,15.0,52,0.00,,---,0.00,981.00,VWS V14.01,2013-07-10 17:58:00,
2013-07-10 13:00:00,76.9,58.0,29.91,NNE,27,5.0,15.0,52,0.00,,---,0.00,981.00,VWS V14.01,2013-07-10 18:00:00,
2013-07-10 13:03:00,77.4,59.0,29.91,NNW,329,7.0,8.0,53,0.00,,---,0.00,958.00,VWS V14.01,2013-07-10 18:03:00,
2013-07-10 13:08:00,76.9,57.4,29.91,NNE,17,0.0,11.0,51,0.00,,---,0.00,993.00,VWS V14.01,2013-07-10 18:08:00,
2013-07-10 13:13:00,77.4,59.0,29.91,North,360,2.0,11.0,53,0.00,,---,0.00,1044.00,VWS V14.01,2013-07-10 18:13:00,
2013-07-10 13:18:00,77.4,59.5,29.91,North,360,2.0,11.0,54,0.00,,---,0.00,1079.00,VWS V14.01,2013-07-10 18:18:00,
2013-07-10 13:23:00,78.3,59.2,29.91,NNE,32,2.0,11.0,52,0.00,,---,0.00,1030.00,VWS V14.01,2013-07-10 18:23:00,
2013-07-10 13:28:00,79.6,59.3,29.91,North,360,4.0,11.0,50,0.00,,---,0.00,281.00,VWS V14.01,2013-07-10 18:28:00,
2013-07-10 13:33:00,78.3,58.7,29.91,NNW,337,0.0,11.0,51,0.00,,---,0.00,302.00,VWS V14.01,2013-07-10 18:33:00,
2013-07-10 13:38:00,77.6,58.6,29.91,North,351,1.0,11.0,52,0.00,,---,0.00,471.00,VWS V14.01,2013-07-10 18:38:00,
2013-07-10 13:43:00,77.6,59.1,29.91,NNW,328,3.0,11.0,53,0.00,,---,0.00,265.00,VWS V14.01,2013-07-10 18:43:00,
2013-07-10 13:48:00,77.2,59.8,29.91,WSW,243,4.0,11.0,55,0.00,,---,0.00,1014.00,VWS V14.01,2013-07-10 18:48:00,
2013-07-10 13:53:00,78.6,60.6,29.91,SW,219,1.0,11.0,54,0.00,,---,0.00,1014.00,VWS V14.01,2013-07-10 18:53:00,
2013-07-10 13:58:00,79.3,61.2,29.91,NNW,346,1.0,11.0,54,0.00,,---,0.00,1011.00,VWS V14.01,2013-07-10 18:58:00,
2013-07-10 14:00:00,79.3,61.2,29.91,NNW,336,7.0,11.0,54,0.00,,---,0.00,1011.00,VWS V14.01,2013-07-10 19:00:00,
2013-07-10 14:04:00,78.9,58.7,29.91,NNW,342,1.0,7.0,50,0.00,,---,0.00,976.00,VWS V14.01,2013-07-10 19:04:00,
2013-07-10 14:08:00,78.9,58.7,29.91,NNE,16,2.0,7.0,50,0.00,,---,0.00,981.00,VWS V14.01,2013-07-10 19:08:00,
2013-07-10 14:14:00,78.4,57.7,29.91,NNE,17,2.0,7.0,49,0.00,,---,0.00,227.00,VWS V14.01,2013-07-10 19:14:00,
2013-07-10 14:18:00,77.5,58.0,29.91,North,351,2.0,7.0,51,0.00,,---,0.00,983.00,VWS V14.01,2013-07-10 19:18:00,
2013-07-10 14:24:00,78.0,58.4,29.91,North,10,4.0,7.0,51,0.00,,---,0.00,244.00,VWS V14.01,2013-07-10 19:24:00,
2013-07-10 14:29:00,77.8,58.8,29.91,WNW,286,1.0,7.0,52,0.00,,---,0.00,998.00,VWS V14.01,2013-07-10 19:29:00,
2013-07-10 14:34:00,79.1,60.0,29.91,SSW,210,5.0,7.0,52,0.00,,---,0.00,1020.00,VWS V14.01,2013-07-10 19:34:00,
2013-07-10 14:39:00,78.3,59.8,29.91,SW,229,1.0,7.0,53,0.00,,---,0.00,1020.00,VWS V14.01,2013-07-10 19:39:00,
2013-07-10 14:44:00,79.0,58.8,29.91,North,351,4.0,7.0,50,0.00,,---,0.00,221.00,VWS V14.01,2013-07-10 19:44:00,
2013-07-10 14:49:00,78.5,58.9,29.91,NW,317,1.0,7.0,51,0.00,,---,0.00,1004.00,VWS V14.01,2013-07-10 19:49:00,
2013-07-10 14:54:00,78.6,57.9,29.91,WNW,288,2.0,7.0,49,0.00,,---,0.00,309.00,VWS V14.01,2013-07-10 19:54:00,
2013-07-10 14:59:00,79.1,60.5,29.91,NNW,336,1.0,7.0,53,0.00,,---,0.00,939.00,VWS V14.01,2013-07-10 19:59:00,
2013-07-10 15:00:00,79.1,60.5,29.91,NNW,336,1.0,7.0,53,0.00,,---,0.00,939.00,VWS V14.01,2013-07-10 20:00:00,
2013-07-10 15:04:00,78.9,58.7,29.91,SSW,196,1.0,8.0,50,0.00,,---,0.00,902.00,VWS V14.01,2013-07-10 20:04:00,
2013-07-10 15:09:00,78.5,57.2,29.91,NNW,348,3.0,10.0,48,0.00,,---,0.00,953.00,VWS V14.01,2013-07-10 20:09:00,
2013-07-10 15:14:00,78.6,57.9,29.91,NW,306,0.0,10.0,49,0.00,,---,0.00,951.00,VWS V14.01,2013-07-10 20:14:00,
2013-07-10 15:19:00,78.9,59.2,29.91,NNW,347,5.0,10.0,51,0.00,,---,0.00,292.00,VWS V14.01,2013-07-10 20:19:00,
2013-07-10 15:24:00,77.9,58.9,29.91,NW,313,1.0,10.0,52,0.00,,---,0.00,977.00,VWS V14.01,2013-07-10 20:24:00,
2013-07-10 15:28:00,79.8,59.5,29.91,North,349,2.0,10.0,50,0.00,,---,0.00,998.00,VWS V14.01,2013-07-10 20:28:00,
2013-07-10 15:33:00,80.3,57.7,29.90,NNW,340,2.0,10.0,46,0.00,,---,0.00,993.00,VWS V14.01,2013-07-10 20:33:00,
2013-07-10 15:38:00,80.0,59.1,29.90,SW,217,2.0,10.0,49,0.00,,---,0.00,916.00,VWS V14.01,2013-07-10 20:38:00,
2013-07-10 15:43:00,79.1,57.2,29.90,NNW,340,3.0,10.0,47,0.00,,---,0.00,246.00,VWS V14.01,2013-07-10 20:43:00,
2013-07-10 15:48:00,78.0,57.9,29.90,North,5,2.0,10.0,50,0.00,,---,0.00,698.00,VWS V14.01,2013-07-10 20:48:00,
2013-07-10 15:53:00,78.9,57.6,29.90,NW,322,0.0,10.0,48,0.00,,---,0.00,236.00,VWS V14.01,2013-07-10 20:53:00,
2013-07-10 15:58:00,78.4,57.7,29.90,NW,321,1.0,10.0,49,0.00,,---,0.00,171.00,VWS V14.01,2013-07-10 20:58:00,
2013-07-10 16:00:00,78.4,57.7,29.90,NW,321,1.0,10.0,49,0.00,,---,0.00,165.00,VWS V14.01,2013-07-10 21:00:00,
2013-07-10 16:03:00,77.9,58.3,29.90,North,355,3.0,4.0,51,0.00,,---,0.00,178.00,VWS V14.01,2013-07-10 21:03:00,
2013-07-10 16:08:00,76.8,57.9,29.90,NNE,22,2.0,5.0,52,0.00,,---,0.00,220.00,VWS V14.01,2013-07-10 21:08:00,
2013-07-10 16:13:00,76.1,57.8,29.90,NNW,346,0.0,5.0,53,0.00,,---,0.00,214.00,VWS V14.01,2013-07-10 21:13:00,
2013-07-10 16:18:00,78.5,60.0,29.90,NNW,346,2.0,5.0,53,0.00,,---,0.00,816.00,VWS V14.01,2013-07-10 21:18:00,
2013-07-10 16:23:00,79.9,59.0,29.90,NW,309,3.0,5.0,49,0.00,,---,0.00,830.00,VWS V14.01,2013-07-10 21:23:00,
2013-07-10 16:28:00,79.8,59.0,29.90,NW,306,2.0,7.0,49,0.00,,---,0.00,823.00,VWS V14.01,2013-07-10 21:28:00,
2013-07-10 16:33:00,80.2,59.3,29.90,NNE,24,2.0,7.0,49,0.00,,---,0.00,803.00,VWS V14.01,2013-07-10 21:33:00,
2013-07-10 16:38:00,80.3,57.7,29.90,NW,319,1.0,7.0,46,0.00,,---,0.00,710.00,VWS V14.01,2013-07-10 21:38:00,
2013-07-10 16:43:00,79.6,59.3,29.90,South,181,2.0,7.0,50,0.00,,---,0.00,715.00,VWS V14.01,2013-07-10 21:43:00,
2013-07-10 16:48:00,79.8,59.0,29.90,SSW,204,1.0,7.0,49,0.00,,---,0.00,686.00,VWS V14.01,2013-07-10 21:48:00,
2013-07-10 16:53:00,80.1,60.4,29.90,WNW,294,1.0,7.0,51,0.00,,---,0.00,628.00,VWS V14.01,2013-07-10 21:53:00,
2013-07-10 16:58:00,79.5,59.8,29.90,NNW,339,3.0,7.0,51,0.00,,---,0.00,615.00,VWS V14.01,2013-07-10 21:58:00,
2013-07-10 17:00:00,79.6,59.9,29.90,NNW,339,0.0,7.0,51,0.00,,---,0.00,624.00,VWS V14.01,2013-07-10 22:00:00,
2013-07-10 17:03:00,79.2,58.4,29.90,North,355,1.0,5.0,49,0.00,,---,0.00,650.00,VWS V14.01,2013-07-10 22:03:00,
2013-07-10 17:08:00,78.4,55.9,29.90,NNE,28,2.0,7.0,46,0.00,,---,0.00,232.00,VWS V14.01,2013-07-10 22:08:00,
2013-07-10 17:13:00,79.0,58.8,29.89,WNW,302,1.0,7.0,50,0.00,,---,0.00,605.00,VWS V14.01,2013-07-10 22:13:00,
2013-07-10 17:18:00,79.3,58.5,29.90,NNW,343,0.0,7.0,49,0.00,,---,0.00,610.00,VWS V14.01,2013-07-10 22:18:00,
2013-07-10 17:23:00,78.6,58.4,29.89,NNW,344,1.0,7.0,50,0.00,,---,0.00,127.00,VWS V14.01,2013-07-10 22:23:00,
2013-07-10 17:28:00,77.5,57.4,29.89,North,355,1.0,7.0,50,0.00,,---,0.00,318.00,VWS V14.01,2013-07-10 22:28:00,
2013-07-10 17:33:00,77.2,58.2,29.89,NW,316,4.0,7.0,52,0.00,,---,0.00,519.00,VWS V14.01,2013-07-10 22:33:00,
2013-07-10 17:38:00,78.0,58.4,29.89,North,11,3.0,7.0,51,0.00,,---,0.00,508.00,VWS V14.01,2013-07-10 22:38:00,
2013-07-10 17:43:00,78.8,58.0,29.89,West,273,2.0,7.0,49,0.00,,---,0.00,482.00,VWS V14.01,2013-07-10 22:43:00,
2013-07-10 17:48:00,78.0,57.3,29.89,NNW,345,1.0,7.0,49,0.00,,---,0.00,90.00,VWS V14.01,2013-07-10 22:48:00,
2013-07-10 17:53:00,76.9,56.9,29.89,NNW,337,2.0,7.0,50,0.00,,---,0.00,104.00,VWS V14.01,2013-07-10 22:53:00,
2013-07-10 17:58:00,76.2,57.8,29.89,North,5,1.0,7.0,53,0.00,,---,0.00,141.00,VWS V14.01,2013-07-10 22:58:00,
2013-07-10 18:00:00,76.1,57.2,29.89,North,5,1.0,7.0,52,0.00,,---,0.00,141.00,VWS V14.01,2013-07-10 23:00:00,
2013-07-10 18:03:00,76.5,58.6,29.89,NNE,15,2.0,6.0,54,0.00,,---,0.00,411.00,VWS V14.01,2013-07-10 23:03:00,
2013-07-10 18:08:00,77.4,58.4,29.89,NNW,342,1.0,6.0,52,0.00,,---,0.00,401.00,VWS V14.01,2013-07-10 23:08:00,
2013-07-10 18:13:00,77.4,59.0,29.90,North,5,2.0,8.0,53,0.00,,---,0.00,378.00,VWS V14.01,2013-07-10 23:13:00,
2013-07-10 18:18:00,78.0,59.5,29.90,WNW,297,0.0,8.0,53,0.00,,---,0.00,346.00,VWS V14.01,2013-07-10 23:18:00,
2013-07-10 18:23:00,78.2,59.2,29.90,North,5,2.0,8.0,52,0.00,,---,0.00,322.00,VWS V14.01,2013-07-10 23:23:00,
2013-07-10 18:28:00,77.6,58.1,29.89,NNE,26,4.0,8.0,51,0.00,,---,0.00,311.00,VWS V14.01,2013-07-10 23:28:00,
2013-07-10 18:33:00,77.5,59.0,29.90,North,5,2.0,8.0,53,0.00,,---,0.00,299.00,VWS V14.01,2013-07-10 23:33:00,
2013-07-10 18:38:00,77.6,59.1,29.90,North,5,1.0,8.0,53,0.00,,---,0.00,287.00,VWS V14.01,2013-07-10 23:38:00,
2013-07-10 18:43:00,77.3,58.8,29.90,NNE,22,1.0,8.0,53,0.00,,---,0.00,269.00,VWS V14.01,2013-07-10 23:43:00,
2013-07-10 18:48:00,76.8,57.9,29.90,NW,317,4.0,8.0,52,0.00,,---,0.00,236.00,VWS V14.01,2013-07-10 23:48:00,
2013-07-10 18:53:00,76.2,58.4,29.90,NNW,330,2.0,8.0,54,0.00,,---,0.00,221.00,VWS V14.01,2013-07-10 23:53:00,
2013-07-10 18:58:00,75.8,58.5,29.90,West,275,2.0,8.0,55,0.00,,---,0.00,188.00,VWS V14.01,2013-07-10 23:58:00,
2013-07-10 19:00:00,75.8,58.5,29.90,WNW,299,2.0,8.0,55,0.00,,---,0.00,188.00,VWS V14.01,2013-07-11 00:00:00,
2013-07-10 19:03:00,75.4,58.6,29.90,NW,317,1.0,4.0,56,0.00,,---,0.00,76.00,VWS V14.01,2013-07-11 00:03:00,
2013-07-10 19:08:00,75.3,58.0,29.90,NNW,344,0.0,4.0,55,0.00,,---,0.00,146.00,VWS V14.01,2013-07-11 00:08:00,
2013-07-10 19:13:00,75.2,58.4,29.90,NNW,344,0.0,4.0,56,0.00,,---,0.00,132.00,VWS V14.01,2013-07-11 00:13:00,
2013-07-10 19:18:00,75.0,58.8,29.90,North,355,1.0,4.0,57,0.00,,---,0.00,98.00,VWS V14.01,2013-07-11 00:18:00,
2013-07-10 19:23:00,74.9,58.7,29.90,NNW,329,2.0,4.0,57,0.00,,---,0.00,104.00,VWS V14.01,2013-07-11 00:23:00,
2013-07-10 19:28:00,74.7,58.5,29.90,NNW,342,0.0,4.0,57,0.00,,---,0.00,107.00,VWS V14.01,2013-07-11 00:28:00,
2013-07-10 19:33:00,74.4,59.2,29.90,NNE,24,0.0,5.0,59,0.00,,---,0.00,95.00,VWS V14.01,2013-07-11 00:33:00,
2013-07-10 19:38:00,74.3,58.6,29.90,NNE,24,0.0,5.0,58,0.00,,---,0.00,79.00,VWS V14.01,2013-07-11 00:38:00,
2013-07-10 19:43:00,74.1,57.9,29.90,NW,325,0.0,5.0,57,0.00,,---,0.00,54.00,VWS V14.01,2013-07-11 00:43:00,
2013-07-10 19:48:00,74.0,58.3,29.91,NW,325,0.0,5.0,58,0.00,,---,0.00,44.00,VWS V14.01,2013-07-11 00:48:00,
2013-07-10 19:53:00,73.6,58.4,29.91,NNW,340,0.0,5.0,59,0.00,,---,0.00,37.00,VWS V14.01,2013-07-11 00:53:00,
2013-07-10 19:58:00,73.3,59.0,29.91,NNW,340,0.0,5.0,61,0.00,,---,0.00,32.00,VWS V14.01,2013-07-11 00:58:00,
2013-07-10 20:00:00,73.3,59.0,29.91,NNW,340,0.0,5.0,61,0.00,,---,0.00,32.00,VWS V14.01,2013-07-11 01:00:00,
2013-07-10 20:03:00,73.2,59.0,29.91,NNW,340,0.0,0.0,61,0.00,,---,0.00,28.00,VWS V14.01,2013-07-11 01:03:00,
2013-07-10 20:08:00,73.0,59.2,29.91,NNW,340,0.0,0.0,62,0.00,,---,0.00,23.00,VWS V14.01,2013-07-11 01:08:00,
2013-07-10 20:13:00,72.6,59.3,29.91,NNW,340,0.0,0.0,63,0.00,,---,0.00,19.00,VWS V14.01,2013-07-11 01:13:00,
2013-07-10 20:18:00,71.3,60.2,29.91,NNW,340,0.0,0.0,68,0.00,,---,0.00,16.00,VWS V14.01,2013-07-11 01:18:00,
2013-07-10 20:23:00,70.5,59.8,29.91,NNW,340,0.0,0.0,69,0.00,,---,0.00,12.00,VWS V14.01,2013-07-11 01:23:00,
2013-07-10 20:28:00,70.1,60.3,29.91,NNW,340,0.0,0.0,71,0.00,,---,0.00,11.00,VWS V14.01,2013-07-11 01:28:00,
2013-07-10 20:33:00,69.5,60.5,29.91,NNW,340,0.0,0.0,73,0.00,,---,0.00,7.00,VWS V14.01,2013-07-11 01:33:00,
2013-07-10 20:38:00,69.3,60.7,29.91,NNW,340,0.0,0.0,74,0.00,,---,0.00,5.00,VWS V14.01,2013-07-11 01:38:00,
2013-07-10 20:43:00,69.0,60.8,29.92,NNW,340,0.0,0.0,75,0.00,,---,0.00,0.00,VWS V14.01,2013-07-11 01:43:00,
2013-07-10 20:48:00,68.5,60.3,29.92,NNW,340,0.0,0.0,75,0.00,,---,0.00,0.00,VWS V14.01,2013-07-11 01:48:00,
2013-07-10 20:53:00,68.2,60.0,29.92,NNW,340,0.0,0.0,75,0.00,,---,0.00,0.00,VWS V14.01,2013-07-11 01:53:00,
2013-07-10 20:58:00,68.0,60.5,29.92,NNW,340,0.0,0.0,77,0.00,,---,0.00,0.00,VWS V14.01,2013-07-11 01:58:00,
2013-07-10 21:00:00,68.0,60.5,29.92,NNW,340,0.0,0.0,77,0.00,,---,0.00,0.00,VWS V14.01,2013-07-11 02:00:00,
2013-07-10 21:03:00,67.2,61.2,29.92,NNW,340,0.0,0.0,81,0.00,,---,0.00,0.00,VWS V14.01,2013-07-11 02:03:00,
2013-07-10 21:08:00,66.7,61.4,29.92,NNW,340,0.0,0.0,83,0.00,,---,0.00,0.00,VWS V14.01,2013-07-11 02:08:00,
2013-07-10 21:13:00,66.0,61.0,29.92,NNW,340,0.0,0.0,84,0.00,,---,0.00,0.00,VWS V14.01,2013-07-11 02:13:00,
2013-07-10 21:18:00,65.8,60.8,29.93,NNW,340,0.0,0.0,84,0.00,,---,0.00,0.00,VWS V14.01,2013-07-11 02:18:00,
2013-07-10 21:23:00,65.7,60.7,29.93,NNW,340,0.0,0.0,84,0.00,,---,0.00,0.00,VWS V14.01,2013-07-11 02:23:00,
2013-07-10 21:28:00,65.5,60.5,29.93,NNW,340,0.0,0.0,84,0.00,,---,0.00,0.00,VWS V14.01,2013-07-11 02:28:00,
2013-07-10 21:33:00,65.0,60.7,29.93,NNW,340,0.0,1.0,86,0.00,,---,0.00,0.00,VWS V14.01,2013-07-11 02:33:00,
2013-07-10 21:38:00,64.7,60.8,29.93,NNW,340,0.0,1.0,87,0.00,,---,0.00,0.00,VWS V14.01,2013-07-11 02:38:00,
2013-07-10 21:43:00,64.3,60.7,29.94,NNW,340,0.0,1.0,88,0.00,,---,0.00,0.00,VWS V14.01,2013-07-11 02:43:00,
2013-07-10 21:48:00,63.9,60.6,29.94,NNW,340,0.0,1.0,89,0.00,,---,0.00,0.00,VWS V14.01,2013-07-11 02:48:00,
2013-07-10 21:53:00,63.8,60.5,29.94,NNW,340,0.0,1.0,89,0.00,,---,0.00,0.00,VWS V14.01,2013-07-11 02:53:00,
2013-07-10 21:58:00,63.4,60.4,29.94,NNW,340,0.0,1.0,90,0.00,,---,0.00,0.00,VWS V14.01,2013-07-11 02:58:00,
2013-07-10 22:00:00,63.4,60.4,29.94,NNW,340,0.0,1.0,90,0.00,,---,0.00,0.00,VWS V14.01,2013-07-11 03:00:00,
2013-07-10 22:03:00,63.1,60.1,29.94,NNW,340,0.0,0.0,90,0.00,,---,0.00,0.00,VWS V14.01,2013-07-11 03:03:00,
2013-07-10 22:08:00,62.9,59.9,29.94,NNW,340,0.0,0.0,90,0.00,,---,0.00,0.00,VWS V14.01,2013-07-11 03:08:00,
2013-07-10 22:13:00,62.8,59.8,29.95,NNW,340,0.0,0.0,90,0.00,,---,0.00,0.00,VWS V14.01,2013-07-11 03:13:00,
2013-07-10 22:18:00,62.7,60.0,29.95,NNW,340,0.0,0.0,91,0.00,,---,0.00,0.00,VWS V14.01,2013-07-11 03:18:00,
2013-07-10 22:23:00,62.3,59.6,29.95,NNW,340,0.0,0.0,91,0.00,,---,0.00,0.00,VWS V14.01,2013-07-11 03:23:00,
2013-07-10 22:28:00,62.1,59.5,29.95,NNW,340,0.0,0.0,91,0.00,,---,0.00,0.00,VWS V14.01,2013-07-11 03:28:00,
2013-07-10 22:33:00,61.9,59.2,29.95,NNW,340,0.0,0.0,91,0.00,,---,0.00,0.00,VWS V14.01,2013-07-11 03:33:00,
2013-07-10 22:38:00,61.7,59.4,29.95,NNW,340,0.0,0.0,92,0.00,,---,0.00,0.00,VWS V14.01,2013-07-11 03:38:00,
2013-07-10 22:43:00,61.5,59.2,29.95,NNW,340,0.0,0.0,92,0.00,,---,0.00,0.00,VWS V14.01,2013-07-11 03:43:00,
2013-07-10 22:48:00,61.5,59.2,29.95,NNW,340,0.0,0.0,92,0.00,,---,0.00,0.00,VWS V14.01,2013-07-11 03:48:00,
2013-07-10 22:53:00,61.5,59.2,29.95,NNW,340,0.0,0.0,92,0.00,,---,0.00,0.00,VWS V14.01,2013-07-11 03:53:00,
2013-07-10 22:58:00,61.5,59.2,29.96,NNW,340,0.0,0.0,92,0.00,,---,0.00,0.00,VWS V14.01,2013-07-11 03:58:00,
2013-07-10 23:00:00,61.5,59.2,29.96,NNW,340,0.0,0.0,92,0.00,,---,0.00,0.00,VWS V14.01,2013-07-11 04:00:00,
2013-07-10 23:01:00,61.4,58.8,29.96,NNW,340,0.0,0.0,91,0.00,,---,0.00,0.00,VWS V14.01,2013-07-11 04:01:00,
2013-07-10 23:06:00,61.3,58.7,29.96,NNW,340,0.0,0.0,91,0.00,,---,0.00,0.00,VWS V14.01,2013-07-11 04:06:00,
2013-07-10 23:11:00,61.3,58.7,29.96,NNW,340,0.0,0.0,91,0.00,,---,0.00,0.00,VWS V14.01,2013-07-11 04:11:00,
2013-07-10 23:16:00,61.2,58.6,29.96,NNW,340,0.0,0.0,91,0.00,,---,0.00,0.00,VWS V14.01,2013-07-11 04:16:00,
2013-07-10 23:21:00,61.1,58.5,29.96,NNW,340,0.0,0.0,91,0.00,,---,0.00,0.00,VWS V14.01,2013-07-11 04:21:00,
2013-07-10 23:26:00,61.0,58.4,29.96,NNW,340,0.0,0.0,91,0.00,,---,0.00,0.00,VWS V14.01,2013-07-11 04:26:00,
2013-07-10 23:31:00,60.9,58.3,29.96,NNW,340,0.0,0.0,91,0.00,,---,0.00,0.00,VWS V14.01,2013-07-11 04:31:00,
2013-07-10 23:36:00,60.7,58.1,29.97,NNW,340,0.0,0.0,91,0.00,,---,0.00,0.00,VWS V14.01,2013-07-11 04:36:00,
2013-07-10 23:41:00,60.7,58.1,29.97,NNW,340,0.0,0.0,91,0.00,,---,0.00,0.00,VWS V14.01,2013-07-11 04:41:00,
2013-07-10 23:46:00,60.6,58.0,29.97,NNW,340,0.0,0.0,91,0.00,,---,0.00,0.00,VWS V14.01,2013-07-11 04:46:00,
2013-07-10 23:51:00,60.4,57.8,29.97,NNW,340,0.0,0.0,91,0.00,,---,0.00,0.00,VWS V14.01,2013-07-11 04:51:00,
2013-07-10 23:56:00,60.4,57.8,29.97,NNW,340,0.0,0.0,91,0.00,,---,0.00,0.00,VWS V14.01,2013-07-11 04:56:00,